TimeCST,TemperatureF,Dew PointF,Humidity,Sea Level PressureIn,VisibilityMPH,Wind Direction,Wind SpeedMPH,Gust SpeedMPH,PrecipitationIn,Events,Conditions,WindDirDegrees,DateUTC
12:15 AM,42.8,42.8,100,29.86,10.0,NW,9.2,-,N/A,,Overcast,310,2012-12-10 06:15:00
12:35 AM,42.8,41.0,93,29.86,10.0,WNW,13.8,20.7,N/A,,Overcast,300,2012-12-10 06:35:00
12:55 AM,41.0,39.2,93,29.88,10.0,NW,9.2,-,N/A,,Scattered Clouds,310,2012-12-10 06:55:00
1:15 AM,39.2,37.4,93,29.88,10.0,NW,10.4,18.4,N/A,,Scattered Clouds,310,2012-12-10 07:15:00
1:35 AM,39.2,37.4,93,29.88,10.0,NW,11.5,17.3,N/A,,Scattered Clouds,310,2012-12-10 07:35:00
1:55 AM,37.4,35.6,93,29.88,10.0,WNW,10.4,21.9,N/A,,Scattered Clouds,300,2012-12-10 07:55:00
2:15 AM,35.6,33.8,93,29.87,10.0,NW,15.0,21.9,N/A,,Clear,310,2012-12-10 08:15:00
2:35 AM,33.8,32.0,93,29.89,10.0,WNW,10.4,21.9,N/A,,Scattered Clouds,300,2012-12-10 08:35:00
2:55 AM,33.8,30.2,87,29.88,10.0,WNW,9.2,-,N/A,,Mostly Cloudy,290,2012-12-10 08:55:00
3:15 AM,30.2,30.2,100,29.88,10.0,WNW,8.1,16.1,N/A,,Scattered Clouds,300,2012-12-10 09:15:00
3:35 AM,30.2,28.4,93,29.86,10.0,WNW,11.5,21.9,N/A,,Clear,300,2012-12-10 09:35:00
3:55 AM,30.2,28.4,93,29.88,10.0,NW,8.1,-,N/A,,Clear,320,2012-12-10 09:55:00
4:15 AM,30.2,28.4,93,29.88,10.0,NW,8.1,16.1,N/A,,Clear,310,2012-12-10 10:15:00
4:35 AM,30.2,28.4,93,29.89,10.0,WNW,9.2,-,N/A,,Mostly Cloudy,300,2012-12-10 10:35:00
4:55 AM,30.2,28.4,93,29.90,10.0,WNW,9.2,-,N/A,,Overcast,290,2012-12-10 10:55:00
5:15 AM,30.2,28.4,93,29.90,10.0,WNW,8.1,-,N/A,,Overcast,300,2012-12-10 11:15:00
5:35 AM,30.2,28.4,93,29.89,10.0,WNW,8.1,16.1,N/A,,Overcast,300,2012-12-10 11:35:00
5:55 AM,30.2,28.4,93,29.90,10.0,WNW,9.2,-,N/A,,Overcast,290,2012-12-10 11:55:00
6:15 AM,30.2,28.4,93,29.91,10.0,WNW,8.1,-,N/A,,Overcast,290,2012-12-10 12:15:00
6:35 AM,30.2,28.4,93,29.91,10.0,NW,11.5,-,N/A,,Overcast,310,2012-12-10 12:35:00
6:55 AM,30.2,28.4,93,29.93,10.0,NW,12.7,17.3,N/A,,Overcast,310,2012-12-10 12:55:00
7:15 AM,30.2,28.4,93,29.94,10.0,WNW,5.8,-,N/A,,Overcast,300,2012-12-10 13:15:00
7:35 AM,30.2,28.4,93,29.93,10.0,NW,10.4,-,N/A,,Overcast,310,2012-12-10 13:35:00
7:55 AM,30.2,28.4,93,29.93,10.0,WNW,10.4,18.4,N/A,,Overcast,300,2012-12-10 13:55:00
8:15 AM,28.4,26.6,93,29.93,10.0,WNW,9.2,17.3,N/A,,Overcast,300,2012-12-10 14:15:00
8:35 AM,28.4,26.6,93,29.95,10.0,NW,8.1,-,N/A,,Overcast,310,2012-12-10 14:35:00
8:55 AM,28.4,26.6,93,29.95,10.0,WNW,11.5,16.1,N/A,,Overcast,290,2012-12-10 14:55:00
9:15 AM,28.4,24.8,86,29.96,10.0,WNW,12.7,18.4,N/A,,Overcast,300,2012-12-10 15:15:00
9:35 AM,28.4,24.8,86,29.96,10.0,WNW,11.5,18.4,N/A,,Overcast,300,2012-12-10 15:35:00
9:55 AM,28.4,26.6,93,29.96,10.0,WNW,10.4,18.4,N/A,,Overcast,300,2012-12-10 15:55:00
10:15 AM,28.4,24.8,86,29.96,10.0,NW,12.7,20.7,N/A,,Overcast,310,2012-12-10 16:15:00
10:35 AM,28.4,24.8,86,29.97,10.0,NW,13.8,21.9,N/A,,Overcast,310,2012-12-10 16:35:00
10:55 AM,28.4,24.8,86,29.96,10.0,WNW,13.8,20.7,N/A,,Overcast,300,2012-12-10 16:55:00
11:15 AM,30.2,24.8,80,29.95,10.0,WNW,10.4,18.4,N/A,,Overcast,290,2012-12-10 17:15:00
11:35 AM,30.2,26.6,86,29.94,10.0,NW,12.7,19.6,N/A,,Overcast,310,2012-12-10 17:35:00
11:55 AM,30.2,26.6,86,29.94,10.0,NW,11.5,16.1,N/A,,Overcast,310,2012-12-10 17:55:00
12:15 PM,30.2,26.6,86,29.93,10.0,WNW,10.4,16.1,N/A,,Overcast,300,2012-12-10 18:15:00
12:35 PM,30.2,26.6,86,29.93,10.0,NW,11.5,17.3,N/A,,Overcast,310,2012-12-10 18:35:00
12:55 PM,30.2,26.6,86,29.93,10.0,WNW,9.2,-,N/A,,Overcast,300,2012-12-10 18:55:00
1:15 PM,30.2,26.6,86,29.92,10.0,NW,11.5,17.3,N/A,,Overcast,310,2012-12-10 19:15:00
1:35 PM,30.2,26.6,86,29.91,10.0,WNW,10.4,-,N/A,,Overcast,290,2012-12-10 19:35:00
1:55 PM,30.2,26.6,86,29.93,10.0,WNW,8.1,-,N/A,,Overcast,300,2012-12-10 19:55:00
2:15 PM,30.2,26.6,86,29.94,10.0,WNW,10.4,-,N/A,,Overcast,300,2012-12-10 20:15:00
2:35 PM,30.2,26.6,86,29.94,10.0,WNW,9.2,-,N/A,,Overcast,290,2012-12-10 20:35:00
2:55 PM,30.2,26.6,86,29.95,10.0,NW,10.4,18.4,N/A,,Overcast,310,2012-12-10 20:55:00
3:15 PM,30.2,26.6,86,29.95,10.0,WNW,11.5,17.3,N/A,,Overcast,300,2012-12-10 21:15:00
3:35 PM,30.2,26.6,86,29.96,10.0,WNW,9.2,-,N/A,,Overcast,290,2012-12-10 21:35:00
3:55 PM,30.2,26.6,86,29.97,10.0,WNW,10.4,-,N/A,,Overcast,300,2012-12-10 21:55:00
4:15 PM,30.2,24.8,80,29.98,10.0,WNW,9.2,-,N/A,,Overcast,290,2012-12-10 22:15:00
4:35 PM,30.2,24.8,80,29.99,10.0,WNW,9.2,16.1,N/A,,Overcast,300,2012-12-10 22:35:00
4:55 PM,30.2,24.8,80,30.00,10.0,NW,10.4,-,N/A,,Overcast,310,2012-12-10 22:55:00
5:15 PM,30.2,24.8,80,30.00,10.0,WNW,6.9,16.1,N/A,,Overcast,300,2012-12-10 23:15:00
5:35 PM,30.2,24.8,80,30.00,10.0,WNW,4.6,-,N/A,,Overcast,300,2012-12-10 23:35:00
5:55 PM,30.2,24.8,80,30.01,10.0,NW,6.9,-,N/A,,Overcast,310,2012-12-10 23:55:00
6:15 PM,30.2,24.8,80,30.03,10.0,WNW,6.9,-,N/A,,Overcast,290,2012-12-11 00:15:00
6:35 PM,30.2,24.8,80,30.03,10.0,WNW,12.7,-,N/A,,Overcast,290,2012-12-11 00:35:00
6:55 PM,30.2,24.8,80,30.04,10.0,NW,6.9,-,N/A,,Overcast,310,2012-12-11 00:55:00
7:15 PM,30.2,24.8,80,30.04,10.0,WNW,6.9,-,N/A,,Overcast,300,2012-12-11 01:15:00
7:35 PM,30.2,23.0,75,30.05,10.0,NW,9.2,-,N/A,,Overcast,320,2012-12-11 01:35:00
7:55 PM,30.2,23.0,75,30.04,10.0,NW,5.8,-,N/A,,Overcast,320,2012-12-11 01:55:00
8:15 PM,30.2,23.0,75,30.04,10.0,NW,5.8,-,N/A,,Overcast,320,2012-12-11 02:15:00
8:35 PM,30.2,23.0,75,30.05,10.0,NW,8.1,-,N/A,,Overcast,320,2012-12-11 02:35:00
8:55 PM,30.2,21.2,69,30.05,10.0,WNW,5.8,-,N/A,,Overcast,300,2012-12-11 02:55:00
9:15 PM,30.2,21.2,69,30.06,10.0,NNW,6.9,-,N/A,,Overcast,330,2012-12-11 03:15:00
9:35 PM,30.2,21.2,69,30.06,10.0,NNW,9.2,-,N/A,,Overcast,340,2012-12-11 03:35:00
9:55 PM,30.2,21.2,69,30.06,10.0,NW,4.6,-,N/A,,Overcast,310,2012-12-11 03:55:00
10:15 PM,30.2,23.0,75,30.06,10.0,NW,4.6,-,N/A,,Overcast,320,2012-12-11 04:15:00
10:35 PM,30.2,21.2,69,30.06,10.0,WNW,3.5,-,N/A,,Overcast,300,2012-12-11 04:35:00
10:55 PM,30.2,21.2,69,30.07,10.0,Calm,Calm,-,N/A,,Overcast,0,2012-12-11 04:55:00
11:15 PM,30.2,21.2,69,30.07,10.0,WNW,5.8,-,N/A,,Overcast,290,2012-12-11 05:15:00
11:35 PM,30.2,21.2,69,30.08,10.0,West,3.5,-,N/A,,Overcast,280,2012-12-11 05:35:00
11:55 PM,30.2,21.2,69,30.08,10.0,Calm,Calm,-,N/A,,Overcast,0,2012-12-11 05:55:00